TimeCDT,TemperatureF,Dew PointF,Humidity,Sea Level PressureIn,VisibilityMPH,Wind Direction,Wind SpeedMPH,Gust SpeedMPH,PrecipitationIn,Events,Conditions,WindDirDegrees,DateUTC
12:52 AM,37.0,32.0,82,29.66,10.0,Calm,Calm,-,N/A,,Clear,0,2012-10-13 05:52:00
1:52 AM,35.6,33.8,93,29.63,10.0,Calm,Calm,-,N/A,,Clear,0,2012-10-13 06:52:00
2:52 AM,34.0,33.1,96,29.67,10.0,Calm,Calm,-,N/A,,Clear,0,2012-10-13 07:52:00
3:52 AM,35.1,33.1,92,29.67,10.0,SSW,3.5,-,N/A,,Clear,210,2012-10-13 08:52:00
4:52 AM,37.0,34.0,89,29.68,10.0,SE,3.5,-,N/A,,Clear,130,2012-10-13 09:52:00
5:52 AM,33.1,32.0,96,29.71,10.0,Calm,Calm,-,N/A,,Clear,0,2012-10-13 10:52:00
6:52 AM,30.9,30.9,100,29.73,10.0,Variable,3.5,-,N/A,,Clear,0,2012-10-13 11:52:00
7:52 AM,35.1,33.1,92,29.76,10.0,Calm,Calm,-,N/A,,Clear,0,2012-10-13 12:52:00
8:52 AM,37.9,35.1,89,29.78,10.0,Calm,Calm,-,N/A,,Clear,0,2012-10-13 13:52:00
9:52 AM,48.0,39.0,71,29.81,10.0,NNW,9.2,-,N/A,,Clear,340,2012-10-13 14:52:00
10:52 AM,51.1,37.0,59,29.83,10.0,North,11.5,-,N/A,,Clear,360,2012-10-13 15:52:00
11:52 AM,54.0,37.0,53,29.84,10.0,North,12.7,-,N/A,,Clear,350,2012-10-13 16:52:00
12:52 PM,57.0,36.0,45,29.84,10.0,NNW,8.1,-,N/A,,Clear,330,2012-10-13 17:52:00
1:52 PM,59.0,36.0,42,29.84,10.0,NNW,15.0,-,N/A,,Clear,340,2012-10-13 18:52:00
2:52 PM,61.0,35.1,38,29.84,10.0,NW,9.2,18.4,N/A,,Clear,320,2012-10-13 19:52:00
3:52 PM,60.1,35.1,39,29.86,10.0,NNW,11.5,-,N/A,,Clear,330,2012-10-13 20:52:00
4:52 PM,60.1,36.0,41,29.87,10.0,North,5.8,-,N/A,,Clear,350,2012-10-13 21:52:00
5:52 PM,57.9,36.0,44,29.89,10.0,WNW,5.8,-,N/A,,Clear,300,2012-10-13 22:52:00
6:52 PM,55.4,37.4,51,29.88,10.0,NW,5.8,-,N/A,,Scattered Clouds,310,2012-10-13 23:52:00
7:52 PM,53.1,37.0,55,29.94,10.0,North,6.9,-,N/A,,Mostly Cloudy,10,2012-10-14 00:52:00
8:52 PM,50.0,37.4,62,29.92,10.0,North,3.5,-,N/A,,Overcast,350,2012-10-14 01:52:00
9:52 PM,48.9,37.0,64,29.95,10.0,Calm,Calm,-,N/A,,Mostly Cloudy,0,2012-10-14 02:52:00
10:52 PM,48.0,37.0,66,29.96,10.0,Calm,Calm,-,N/A,,Overcast,0,2012-10-14 03:52:00
11:52 PM,37.4,33.8,87,29.94,10.0,Calm,Calm,-,N/A,,Clear,0,2012-10-14 04:52:00